Home > Time Zones > World Clock > Weather > India > Thane > Past weeks

Flag for India Weather past 2 weeks in Thane, Maharashtra, India

Now
84 °F

Broken clouds.


Feels Like: 98 °F
Forecast: 80 / 85 °F
Wind: 9 mph from Southwest

Location: Bombay / Santacruz

Current Time: Aug 1, 2014 at 12:25:58 PM

Latest Report: Aug 1, 2014 at 10:40 AM


Visibility: 2 mi

Pressure: 29.62 "Hg

Humidity: 89%

Dew point: 81 °F

Location of ThaneLocation

Historic Weather in Thane — Graph

°F

Thane temperature yesterday

Maximum temperature yesterday: 81 °F (at 2:40 AM)
Minimum temperature yesterday: 77 °F (at 4:40 PM)
Average temperature yesterday: 79 °F

Past Weeks' High & Low Weather Summary

 TemperatureHumidityPressure
High88 °F (Jul 21, 11:40 AM)100% (Jul 17, 5:40 PM)29.80 "Hg (Jul 17, 5:40 PM)
Low77 °F (Jul 27, 2:40 PM)70% (Jul 26, 2:40 PM)29.50 "Hg (Jul 17, 4:40 PM)
Average83 °F88%29.65 "Hg
* Reported Jul 17 10:40 AM — Aug 1 10:40 AM, Thane, Weather by CustomWeather, © 2014

Note: Actual official high and low records may vary slightly from our data, if they occured in-between our weather recording intervals... More about our weather records

Advertising

Thane weather history for previous 24 hours

 ConditionsComfort  
Time TempWeatherWind HumidityBarometerVisibility
10:40 AM
Aug 1
84 °FBroken clouds.9 mph89%29.62 "Hg2 mi
8:40 AM81 °FBroken clouds.9 mph94%29.62 "Hg1 mi
7:40 AM82 °FBroken clouds.14 mph89%29.62 "Hg1 mi
6:40 AM81 °FPartly cloudy.15 mph94%29.59 "Hg2 mi
4:40 AM81 °FMostly cloudy.9 mph89%29.56 "Hg1 mi
3:40 AM79 °FSprinkles. Mostly cloudy.8 mph94%29.56 "Hg1 mi
2:40 AM79 °FDrizzle. Mostly cloudy.14 mph89%29.56 "Hg1 mi
1:40 AM79 °FDrizzle. Mostly cloudy.6 mph94%29.59 "Hg1 mi
12:40 AM81 °FLight rain. Mostly cloudy.6 mph89%29.59 "Hg2 mi
11:40 PM
Jul 31
79 °FFog.8 mph94%29.62 "Hg2 mi
9:40 PM79 °FMostly cloudy.6 mph94%29.59 "Hg1 mi
8:40 PM79 °FLight rain. Mostly cloudy.9 mph100%29.59 "Hg1 mi
7:40 PM77 °FRain. More clouds than sun.8 mph100%29.59 "Hg1 mi
6:40 PM77 °FHeavy rain. More clouds than sun.13 mph100%29.59 "Hg1 mi
4:40 PM77 °FLight rain. More clouds than sun.13 mph100%29.56 "Hg1 mi
2:40 PM79 °FLight rain. More clouds than sun.12 mph100%29.59 "Hg1 mi
1:40 PM79 °FLight rain. More clouds than sun.8 mph100%29.59 "Hg1 mi
12:40 PM79 °FLight rain. More clouds than sun.13 mph100%29.62 "Hg1 mi
Weather by CustomWeather, © 2014

See weather overviewHow to use our weather pages